KC3ROS Weather Reports


Display with metric or nautical units.
time (UTC)temp
F
wind
direction
speed
MPH
gust
MPH
rain 1hr
in
rain 24hr
in
rain mn
in
humidity
%
barometer
mb
20260906220628 75 348 2.0 4.0 0.00 0.00 0.00 58 1016.6
20260906220123 75 27 0.0 4.0 0.00 0.00 0.00 57 1016.7
20260906215622 75 1 2.0 4.0 0.00 0.00 0.00 56 1016.6
20260906215121 76 358 3.0 4.0 0.00 0.00 0.00 55 1016.7
20260906214620 76 351 3.0 4.0 0.00 0.00 0.00 57 1016.7
20260906214115 76 29 1.0 3.0 0.00 0.00 0.00 56 1016.4
20260906213614 76 339 0.0 2.0 0.00 0.00 0.00 54 1016.4
20260906213108 76 333 1.0 2.0 0.00 0.00 0.00 54 1016.5
20260906212601 76 0 2.0 3.0 0.00 0.00 0.00 55 1016.7
20260906212057 75 354 2.0 3.0 0.00 0.00 0.00 56 1016.5
20260906211556 74 338 2.0 3.0 0.00 0.00 0.00 55 1016.7
20260906211052 75 1 2.0 3.0 0.00 0.00 0.00 58 1017.0
20260906210547 73 357 2.0 2.0 0.00 0.00 0.00 57 1017.0
20260906210041 73 9 2.0 2.0 0.00 0.00 0.00 62 1016.7
20260906205537 73 10 1.0 3.0 0.00 0.00 0.00 65 1016.5
20260906205033 72 3 2.0 3.0 0.00 0.00 0.00 64 1016.6
20260906204527 73 8 2.0 3.0 0.00 0.00 0.00 66 1016.5
20260906204026 73 13 2.0 2.0 0.00 0.00 0.00 64 1016.6
20260906203521 74 27 2.0 3.0 0.00 0.00 0.00 63 1016.5
20260906203016 75 18 2.0 4.0 0.00 0.00 0.00 59 1016.6
20260906202513 74 304 3.0 4.0 0.00 0.00 0.00 59 1016.5
20260906202007 73 17 2.0 2.0 0.00 0.00 0.00 61 1016.5
20260906201502 73 12 2.0 2.0 0.00 0.00 0.00 64 1016.5
20260906200956 72 21 2.0 3.0 0.00 0.00 0.00 64 1016.7
20260906200453 73 12 1.0 4.0 0.00 0.00 0.00 64 1016.6
20260906195952 73 7 2.0 4.0 0.00 0.00 0.00 63 1016.7
20260906195449 74 10 1.0 4.0 0.00 0.00 0.00 61 1016.4
20260906194944 76 4 3.0 4.0 0.00 0.00 0.00 59 1016.5
20260906194440 77 343 2.0 5.0 0.00 0.00 0.00 58 1016.6
20260906193935 75 3 1.0 3.0 0.00 0.00 0.00 58 1016.8
20260906193430 75 351 1.0 3.0 0.00 0.00 0.00 60 1016.8
20260906192925 75 234 3.0 3.0 0.00 0.00 0.00 64 1016.8
20260906192420 74 28 2.0 3.0 0.00 0.00 0.00 63 1017.1
20260906191919 74 17 3.0 4.0 0.00 0.00 0.00 63 1016.8
20260906191414 74 7 1.0 2.0 0.00 0.00 0.00 63 1017.2
20260906190908 73 330 2.0 2.0 0.00 0.00 0.00 66 1017.1
20260906190407 72 11 2.0 3.0 0.00 0.00 0.00 68 1017.2
20260906185902 74 15 2.0 3.0 0.00 0.00 0.00 67 1017.1
20260906185400 74 12 2.0 3.0 0.00 0.00 0.00 64 1017.1
20260906184855 72 0 2.0 3.0 0.00 0.00 0.00 65 1017.1
20260906184350 74 2 2.0 3.0 0.00 0.00 0.00 66 1017.3
20260906183845 73 44 0.0 2.0 0.00 0.00 0.00 63 1017.3
20260906183341 75 24 3.0 4.0 0.00 0.00 0.00 64 1017.2
20260906182836 72 68 0.0 3.0 0.00 0.00 0.00 68 1017.2
20260906182331 71 2 2.0 3.0 0.00 0.00 0.00 70 1017.2
20260906181826 72 4 0.0 2.0 0.00 0.00 0.00 68 1017.2
20260906181323 73 349 2.0 3.0 0.00 0.00 0.00 68 1017.4
20260906180817 74 23 2.0 3.0 0.00 0.00 0.00 70 1017.3
20260906180312 73 73 0.0 3.0 0.00 0.00 0.00 67 1017.2
20260906175809 74 109 2.0 4.0 0.00 0.00 0.00 66 1017.5
20260906175306 74 8 2.0 3.0 0.00 0.00 0.00 66 1017.5
20260906174804 73 21 2.0 3.0 0.00 0.00 0.00 67 1017.2
20260906174258 72 41 1.0 3.0 0.00 0.00 0.00 68 1017.3
20260906173753 72 45 3.0 3.0 0.00 0.00 0.00 67 1017.3
20260906173249 71 356 2.0 3.0 0.00 0.00 0.00 70 1017.3
20260906172748 71 13 2.0 3.0 0.00 0.00 0.00 70 1017.4
20260906172244 72 25 2.0 3.0 0.00 0.00 0.00 70 1017.5
20260906171738 73 355 2.0 3.0 0.00 0.00 0.00 69 1017.4
20260906171234 74 27 3.0 4.0 0.00 0.00 0.00 68 1017.6
20260906170729 74 63 2.0 3.0 0.00 0.00 0.00 68 1017.3
20260906170225 73 39 1.0 5.0 0.00 0.00 0.00 71 1017.4
20260906165721 72 44 2.0 3.0 0.00 0.00 0.00 72 1017.5
20260906165221 71 25 2.0 4.0 0.00 0.00 0.00 72 1017.5
20260906164715 70 23 2.0 3.0 0.00 0.00 0.00 71 1017.7
20260906164210 71 23 2.0 4.0 0.00 0.00 0.00 69 1017.6
20260906163706 72 27 3.0 4.0 0.00 0.00 0.00 71 1017.6
20260906163203 72 16 2.0 4.0 0.00 0.00 0.00 70 1017.7
20260906162659 72 43 3.0 4.0 0.00 0.00 0.00 73 1017.7
20260906162159 73 66 2.0 4.0 0.00 0.00 0.00 73 1017.8
20260906161653 72 58 3.0 4.0 0.00 0.00 0.00 74 1017.7
20260906161152 72 6 3.0 3.0 0.00 0.00 0.00 75 1017.7
20260906160652 72 358 0.0 4.0 0.00 0.00 0.00 78 1017.7
20260906160151 72 13 2.0 3.0 0.00 0.00 0.00 76 1017.9
20260906155648 72 244 2.0 4.0 0.00 0.00 0.00 75 1017.8
20260906155144 71 40 3.0 4.0 0.00 0.00 0.00 76 1017.7
20260906154638 71 5 2.0 7.0 0.00 0.00 0.00 75 1017.9
20260906154133 71 1 3.0 4.0 0.00 0.00 0.00 74 1017.7
20260906153632 71 6 3.0 3.0 0.00 0.00 0.00 76 1017.7
20260906153127 71 22 2.0 3.0 0.00 0.00 0.00 79 1017.8
20260906152621 71 35 0.0 2.0 0.00 0.00 0.00 79 1017.7
20260906152115 70 19 1.0 3.0 0.00 0.00 0.00 75 1017.8
20260906151610 71 33 3.0 4.0 0.00 0.00 0.00 75 1017.6
20260906151106 71 356 2.0 3.0 0.00 0.00 0.00 78 1017.7
20260906150601 70 66 2.0 3.0 0.00 0.00 0.00 77 1017.6
20260906150056 70 14 1.0 3.0 0.00 0.00 0.00 79 1017.7
20260906145555 70 2 2.0 3.0 0.00 0.00 0.00 78 1017.6
20260906145050 70 11 1.0 3.0 0.00 0.00 0.00 79 1017.3
20260906144544 70 22 2.0 2.0 0.00 0.00 0.00 80 1017.5
20260906144040 69 41 0.0 2.0 0.00 0.00 0.00 82 1017.4
20260906143535 69 38 0.0 2.0 0.00 0.00 0.00 83 1017.3
20260906143031 68 62 2.0 2.0 0.00 0.00 0.00 82 1017.3
20260906142525 68 61 3.0 3.0 0.00 0.00 0.00 85 1017.5
20260906142020 68 22 0.0 2.0 0.00 0.00 0.00 86 1017.4
20260906141513 67 56 1.0 4.0 0.00 0.00 0.00 84 1017.2
20260906141008 67 54 2.0 3.0 0.00 0.00 0.00 86 1017.3
20260906140503 67 37 2.0 3.0 0.00 0.00 0.00 86 1017.2
20260906140001 67 7 2.0 3.0 0.00 0.00 0.00 86 1017.2
20260906135459 66 15 0.0 2.0 0.00 0.00 0.00 88 1017.2
20260906134954 65 48 2.0 4.0 0.00 0.00 0.00 88 1017.3
20260906134451 66 15 1.0 3.0 0.00 0.00 0.00 88 1017.0
20260906133951 64 25 0.0 3.0 0.00 0.00 0.00 90 1017.1
20260906133447 64 30 1.0 2.0 0.00 0.00 0.00 89 1017.0
20260906132942 64 22 1.0 2.0 0.00 0.00 0.00 90 1017.1
20260906132437 64 59 2.0 3.0 0.00 0.00 0.00 90 1017.1
20260906131933 64 61 1.0 3.0 0.00 0.00 0.00 91 1017.1
20260906131428 64 6 0.0 3.0 0.00 0.00 0.00 91 1017.2
20260906130924 64 26 2.0 3.0 0.00 0.00 0.00 91 1017.1
20260906130422 64 50 0.0 2.0 0.00 0.00 0.00 89 1017.1
20260906125917 63 15 1.0 2.0 0.00 0.00 0.00 90 1017.1
20260906125414 62 60 1.0 2.0 0.00 0.00 0.00 90 1017.1
20260906124908 62 24 2.0 3.0 0.00 0.00 0.00 91 1017.0
20260906124405 62 24 2.0 3.0 0.00 0.00 0.00 92 1016.8
20260906123904 61 55 2.0 3.0 0.00 0.00 0.00 93 1016.7
20260906123359 61 27 2.0 3.0 0.00 0.00 0.00 95 1016.7
20260906122858 60 25 2.0 3.0 0.00 0.00 0.00 96 1016.5
20260906122353 59 35 2.0 3.0 0.00 0.00 0.00 98 1016.4
20260906121850 59 33 1.0 3.0 0.00 0.00 0.00 98 1016.2
20260906121346 59 31 3.0 3.0 0.00 0.00 0.00 98 1016.3
20260906120842 59 36 3.0 4.0 0.00 0.00 0.00 99 1016.1
20260906120337 59 19 2.0 3.0 0.00 0.00 0.00 99 1016.3
20260906115833 58 25 2.0 4.0 0.00 0.00 0.00 99 1016.2
20260906115328 58 12 2.0 4.0 0.00 0.00 0.00 99 1016.3
20260906114828 58 13 2.0 3.0 0.00 0.00 0.00 99 1016.2
20260906114323 58 11 2.0 4.0 0.00 0.00 0.00 99 1016.2
20260906113818 58 5 3.0 3.0 0.00 0.00 0.00 99 1016.3
20260906113317 58 24 2.0 3.0 0.00 0.00 0.00 99 1016.1
20260906112812 57 29 3.0 3.0 0.00 0.00 0.00 99 1015.9
20260906112308 57 23 2.0 3.0 0.00 0.00 0.00 99 1015.8
20260906111803 57 27 2.0 3.0 0.00 0.00 0.00 99 1015.7
20260906111302 57 25 2.0 3.0 0.00 0.00 0.00 99 1015.7
20260906110757 57 17 2.0 3.0 0.00 0.00 0.00 99 1015.6
20260906110253 57 31 3.0 3.0 0.00 0.00 0.00 99 1015.7
20260906105752 58 24 3.0 4.0 0.00 0.00 0.00 98 1015.6
20260906105248 58 34 3.0 4.0 0.00 0.00 0.00 98 1015.5
20260906104743 58 27 3.0 3.0 0.00 0.00 0.00 98 1015.4
20260906104242 58 25 3.0 3.0 0.00 0.00 0.00 98 1015.5
20260906103740 58 19 1.0 3.0 0.00 0.00 0.00 98 1015.4
20260906103234 58 18 2.0 4.0 0.00 0.00 0.00 98 1015.3
20260906102730 58 30 3.0 4.0 0.00 0.00 0.00 98 1015.5
20260906102229 58 30 3.0 4.0 0.00 0.00 0.00 98 1015.6
20260906101724 58 23 2.0 4.0 0.00 0.00 0.00 98 1015.5
20260906101219 58 25 3.0 4.0 0.00 0.00 0.00 98 1015.3
20260906100715 58 29 3.0 4.0 0.00 0.00 0.00 98 1015.5
20260906100215 58 24 3.0 4.0 0.00 0.00 0.00 98 1015.4
20260906095715 58 25 3.0 4.0 0.00 0.00 0.00 98 1015.2
20260906095210 58 29 3.0 3.0 0.00 0.00 0.00 98 1015.2
20260906094709 58 24 2.0 4.0 0.00 0.00 0.00 98 1015.3
20260906094205 58 30 2.0 3.0 0.00 0.00 0.00 98 1015.2
20260906093701 58 22 2.0 4.0 0.00 0.00 0.00 98 1015.3
20260906093156 58 30 2.0 3.0 0.00 0.00 0.00 98 1015.5
20260906092651 58 30 3.0 4.0 0.00 0.00 0.00 98 1015.3
20260906092151 58 1 2.0 3.0 0.00 0.00 0.00 98 1015.3
20260906091647 58 29 2.0 4.0 0.00 0.00 0.00 98 1015.1
20260906091143 58 18 3.0 4.0 0.00 0.00 0.00 98 1015.2
20260906090639 58 12 3.0 3.0 0.00 0.00 0.00 98 1015.3
20260906090138 58 11 2.0 4.0 0.00 0.00 0.00 98 1015.1
20260906085637 58 24 3.0 4.0 0.00 0.00 0.00 98 1015.2
20260906085132 58 11 3.0 4.0 0.00 0.00 0.00 97 1015.0
20260906084626 59 22 3.0 4.0 0.00 0.00 0.00 97 1015.1
20260906084125 59 31 2.0 4.0 0.00 0.00 0.00 97 1014.9
20260906083621 59 24 2.0 3.0 0.00 0.00 0.00 97 1015.1
20260906083115 59 11 3.0 4.0 0.00 0.00 0.00 97 1015.1
20260906082611 59 29 2.0 3.0 0.00 0.00 0.00 97 1014.9
20260906082106 59 33 2.0 3.0 0.00 0.00 0.00 97 1014.9
20260906081601 59 8 2.0 3.0 0.00 0.00 0.00 97 1015.0
20260906081051 59 7 3.0 4.0 0.00 0.00 0.00 97 1015.0
20260906080548 59 30 2.0 3.0 0.00 0.00 0.00 97 1014.8
20260906080043 59 7 2.0 3.0 0.00 0.00 0.00 96 1014.8
20260906075538 59 14 3.0 4.0 0.00 0.00 0.00 96 1014.9
20260906075032 59 26 3.0 4.0 0.00 0.00 0.00 96 1014.7
20260906074527 59 26 2.0 4.0 0.00 0.00 0.00 96 1015.0
20260906074025 59 18 3.0 3.0 0.00 0.00 0.00 96 1015.0
20260906073521 59 35 2.0 3.0 0.00 0.00 0.00 96 1014.9
20260906073017 59 10 2.0 3.0 0.00 0.00 0.00 96 1014.8
20260906072512 59 18 2.0 4.0 0.00 0.00 0.00 96 1014.7
20260906072008 60 6 2.0 3.0 0.00 0.00 0.00 95 1014.7
20260906071504 60 28 2.0 3.0 0.00 0.00 0.00 95 1014.5
20260906070959 60 24 2.0 3.0 0.00 0.00 0.00 95 1014.7
20260906070455 60 41 1.0 3.0 0.00 0.00 0.00 95 1014.7
20260906065950 60 15 2.0 3.0 0.00 0.00 0.00 94 1014.6
20260906065450 60 6 2.0 3.0 0.00 0.00 0.00 94 1014.8
20260906064945 60 8 2.0 3.0 0.00 0.00 0.00 94 1014.7
20260906064442 60 10 2.0 3.0 0.00 0.00 0.00 94 1014.7
20260906063936 60 26 2.0 3.0 0.00 0.00 0.00 94 1014.7
20260906063432 60 20 2.0 3.0 0.00 0.00 0.00 93 1014.6
20260906062926 60 13 2.0 3.0 0.00 0.00 0.00 93 1014.6
20260906062421 60 24 2.0 3.0 0.00 0.00 0.00 93 1014.6
20260906061915 61 11 2.0 3.0 0.00 0.00 0.00 93 1014.5
20260905232100 74 0 3.0 3.0 0.00 0.00 0.00 77 1013.2
20260905231555 74 0 3.0 3.0 0.00 0.00 0.00 77 1013.2
20260905231051 74 0 2.0 4.0 0.00 0.00 0.00 77 1013.3
20260905230550 74 359 3.0 4.0 0.00 0.00 0.00 77 1013.2
20260905230049 74 350 2.0 3.0 0.00 0.00 0.00 77 1013.1
20260905225549 75 351 2.0 3.0 0.00 0.00 0.00 76 1013.3
20260905225044 75 0 2.0 3.0 0.00 0.00 0.00 77 1013.3
20260905224543 75 0 2.0 3.0 0.00 0.00 0.00 77 1013.2
20260905224043 75 340 2.0 3.0 0.00 0.00 0.00 78 1013.1
20260905223541 75 355 2.0 4.0 0.00 0.00 0.00 78 1013.1
20260905223036 75 348 2.0 6.0 0.00 0.00 0.00 77 1013.0
20260905222531 76 342 4.0 5.0 0.00 0.00 0.00 78 1012.9
20260905222026 76 356 1.0 3.0 0.00 0.00 0.00 77 1012.8
20260905221523 76 354 2.0 4.0 0.00 0.00 0.00 77 1012.9
20260905221019 76 345 2.0 5.0 0.00 0.00 0.00 78 1012.9